GW0774 Weather Reports


time (UTC)temp
C
wind
direction
speed
KPH
gust
KPH
rain 1hr
cm
rain 24hr
cm
rain mn
cm
humidity
%
barometer
mb
20260831105540 7 244 3.2 4.8 0.00 0.00 0.00 85 1004.0
20260831105039 7 244 3.2 6.4 0.00 0.00 0.00 85 1003.9
20260831104606 7 244 3.2 6.4 0.00 0.00 0.00 85 1003.9
20260831104039 7 246 3.2 6.4 0.00 0.00 0.00 86 1003.9
20260831103538 7 220 3.2 4.8 0.00 0.00 0.00 86 1003.9
20260831103056 7 219 3.2 4.8 0.00 0.00 0.00 85 1003.8
20260831102538 7 219 4.8 6.4 0.00 0.00 0.00 84 1003.7
20260831102038 7 219 3.2 8.0 0.00 0.00 0.00 83 1003.8
20260831101603 7 219 4.8 8.0 0.00 0.00 0.00 82 1003.8
20260831101040 8 227 6.4 8.0 0.00 0.00 0.00 81 1003.7
20260831100538 8 227 6.4 8.0 0.00 0.00 0.00 80 1003.7
20260831100052 8 222 6.4 9.7 0.00 0.00 0.00 79 1003.5
20260831095535 9 229 6.4 11.3 0.00 0.00 0.00 78 1003.3
20260831095039 10 229 8.0 14.5 0.00 0.00 0.00 77 1003.2
20260831094558 10 228 9.7 14.5 0.00 0.00 0.00 75 1003.1
20260831094039 10 232 11.3 20.9 0.00 0.00 0.00 73 1003.0
20260831093540 11 238 11.3 20.9 0.00 0.00 0.00 71 1003.0
20260831093059 11 246 14.5 20.9 0.00 0.00 0.00 69 1002.9
20260831092539 11 249 12.9 19.3 0.00 0.00 0.00 71 1002.8
20260831092040 11 249 11.3 19.3 0.00 0.00 0.00 74 1002.7
20260831091553 11 245 12.9 19.3 0.00 0.00 0.00 75 1002.7
20260831091038 11 248 8.0 16.1 0.00 0.00 0.00 77 1002.7
20260831090539 11 258 9.7 20.9 0.00 0.00 0.00 76 1002.6
20260831090057 11 262 11.3 25.7 0.00 0.00 0.00 75 1002.6
20260831085539 11 267 12.9 25.7 0.00 0.00 0.00 77 1002.3
20260831085039 11 243 8.0 22.5 0.00 0.00 0.00 77 1002.4
20260831084557 11 248 9.7 22.5 0.00 0.00 0.00 77 1002.3
20260831084038 11 267 12.9 22.5 0.00 0.00 0.00 77 1002.3
20260831083538 11 294 9.7 24.1 0.00 0.00 0.00 77 1002.3
20260831083057 11 279 11.3 27.4 0.00 0.00 0.00 75 1002.1
20260831082538 11 265 14.5 27.4 0.00 0.00 0.00 74 1002.1
20260831082039 11 232 14.5 29.0 0.00 0.00 0.00 75 1001.9
20260831081604 12 277 16.1 29.0 0.00 0.00 0.00 73 1001.8
20260831081038 11 270 19.3 29.0 0.00 0.00 0.00 71 1001.6
20260831080539 12 276 16.1 32.2 0.00 0.00 0.00 71 1001.4
20260831080058 11 275 19.3 32.2 0.00 0.00 0.00 69 1001.4
20260831075539 12 254 19.3 38.6 0.00 0.00 0.00 68 1001.2
20260831075039 12 244 19.3 38.6 0.00 0.00 0.00 67 1001.4
20260831074559 12 316 20.9 38.6 0.00 0.00 0.00 71 1001.3
20260831074039 11 237 19.3 32.2 0.00 0.00 0.00 76 1001.3
20260831073539 11 257 16.1 32.2 0.00 0.00 0.00 78 1000.9
20260831073055 12 269 17.7 32.2 0.00 0.00 0.00 78 1000.6
20260831072539 11 247 17.7 43.5 0.00 0.00 0.00 77 1000.4
20260831072038 11 267 17.7 45.1 0.00 0.00 0.00 78 1000.5
20260831071551 11 250 19.3 45.1 0.00 0.00 0.00 81 1000.3
20260831071039 11 297 11.3 33.8 0.00 0.00 0.00 81 1000.3
20260831070539 11 267 19.3 33.8 0.00 0.00 0.00 80 1000.2
20260831070109 11 271 19.3 40.2 0.00 0.00 0.00 80 1000.2
20260831065541 11 288 22.5 40.2 0.00 0.00 0.00 80 1000.1
20260831065039 11 252 20.9 43.5 0.00 0.00 0.00 80 1000.2
20260831064552 11 294 25.7 43.5 0.00 0.00 0.00 80 1000.1
20260831064038 11 290 25.7 37.0 0.00 0.00 0.00 80 1000.1
20260831063539 11 273 25.7 43.5 0.00 0.00 0.00 80 1000.1
20260831063051 11 264 29.0 45.1 0.00 0.00 0.00 80 999.8
20260831062540 11 300 29.0 46.7 0.00 0.00 0.00 80 999.7
20260831062039 11 291 27.4 46.7 0.00 0.00 0.00 81 999.5
20260831061607 11 286 29.0 48.3 0.00 0.00 0.00 81 999.7
20260831061039 12 286 30.6 48.3 0.00 0.00 0.00 82 999.4
20260831060539 12 257 25.7 51.5 0.00 0.00 0.00 82 999.5
20260831060110 12 284 29.0 51.5 0.00 0.00 0.00 82 999.5
20260831055538 12 319 27.4 49.9 0.00 0.00 0.00 81 999.5
20260831055041 12 276 27.4 51.5 0.00 0.00 0.00 81 999.5
20260831054555 12 259 25.7 51.5 0.00 0.00 0.00 80 999.5
20260831054041 12 294 20.9 45.1 0.00 0.00 0.00 80 999.5
20260831053538 12 265 24.1 48.3 0.00 0.00 0.00 79 999.3
20260831053141 12 232 22.5 48.3 0.00 0.00 0.00 78 999.3
20260831052538 12 289 20.9 48.3 0.00 0.00 0.00 79 999.3
20260831052042 12 259 19.3 48.3 0.00 0.00 0.00 78 999.2
20260831051547 12 252 22.5 45.1 0.00 0.00 0.00 79 999.1
20260831051038 12 256 30.6 43.5 0.00 0.00 0.00 78 999.1
20260831050538 12 269 29.0 43.5 0.00 0.00 0.00 79 999.0
20260831050108 12 269 25.7 41.8 0.00 0.00 0.00 79 998.9
20260831045538 13 302 24.1 46.7 0.00 0.00 0.00 79 999.0
20260831045039 13 274 24.1 48.3 0.00 0.00 0.00 78 999.0
20260831044602 13 268 30.6 49.9 0.00 0.00 0.00 77 998.9
20260831044038 13 261 30.6 51.5 0.00 0.00 0.00 77 998.9
20260831043538 13 290 35.4 54.7 0.00 0.00 0.00 77 999.0
20260831043059 13 305 33.8 56.3 0.00 0.00 0.00 77 999.0
20260831042539 13 280 37.0 61.2 0.00 0.00 0.00 77 998.9
20260831042036 13 290 32.2 61.2 0.00 0.00 0.00 77 999.0
20260831041610 13 293 33.8 54.7 0.00 0.00 0.00 77 999.1
20260831041036 13 301 32.2 54.7 0.00 0.00 0.00 77 999.0
20260831040536 13 287 33.8 54.7 0.00 0.00 0.00 77 999.0
20260831040058 13 255 29.0 57.9 0.00 0.00 0.00 76 999.2
20260831035537 13 291 32.2 57.9 0.00 0.00 0.00 78 999.2
20260831035037 13 271 33.8 57.9 0.00 0.00 0.00 78 999.1
20260831034559 13 279 27.4 54.7 0.00 0.00 0.00 77 999.1
20260831034042 13 288 27.4 48.3 0.00 0.00 0.00 78 999.0
20260831033539 13 250 25.7 48.3 0.00 0.00 0.00 79 999.1
20260831033110 13 271 24.1 48.3 0.00 0.00 0.00 79 999.0
20260831032537 13 261 27.4 51.5 0.00 0.00 0.00 80 999.2
20260831032036 13 246 24.1 54.7 0.00 0.00 0.00 80 999.4
20260831031555 13 266 24.1 54.7 0.00 0.00 0.00 79 999.4
20260831031036 13 276 24.1 62.8 0.00 0.00 0.00 79 999.2
20260831030536 13 263 27.4 62.8 0.00 0.00 0.00 77 999.1
20260831030103 13 264 29.0 62.8 0.00 0.00 0.00 78 999.1
20260831025540 14 248 29.0 57.9 0.00 0.00 0.00 78 999.2
20260831025037 14 265 29.0 56.3 0.00 0.00 0.00 78 999.1
20260831024559 14 265 27.4 49.9 0.00 0.00 0.00 77 998.9
20260831024036 13 299 27.4 53.1 0.00 0.00 0.00 78 999.0
20260831023536 14 283 25.7 53.1 0.00 0.00 0.00 78 998.9
20260831023103 14 277 29.0 54.7 0.00 0.00 0.00 78 998.9
20260831022536 13 268 20.9 54.7 0.00 0.00 0.00 80 998.9
20260831022036 14 282 22.5 53.1 0.00 0.00 0.00 78 999.1
20260831021553 14 272 27.4 53.1 0.00 0.00 0.00 77 999.1
20260831021044 14 246 25.7 61.2 0.00 0.00 0.00 77 999.2
20260831020541 14 286 30.6 61.2 0.00 0.00 0.00 77 999.1
20260831020106 14 280 30.6 61.2 0.00 0.00 0.00 76 999.1
20260831015536 13 269 29.0 61.2 0.00 0.00 0.00 79 999.1
20260831015036 13 291 27.4 49.9 0.00 0.00 0.00 79 999.3
20260831014547 13 258 24.1 61.2 0.00 0.00 0.00 79 999.4
20260831014036 14 302 29.0 61.2 0.00 0.00 0.00 77 999.4
20260831013536 14 293 25.7 51.5 0.00 0.00 0.00 79 999.4
20260831013059 14 250 25.7 59.5 0.00 0.00 0.00 78 999.7
20260831012539 14 256 30.6 59.5 0.00 0.00 0.00 76 999.6
20260831012040 14 269 30.6 56.3 0.00 0.00 0.00 78 999.7
20260831011550 14 261 25.7 59.5 0.00 0.00 0.00 80 999.6
20260831011039 14 289 29.0 64.4 0.00 0.00 0.00 79 999.7
20260831010539 14 297 33.8 64.4 0.00 0.00 0.00 79 999.5
20260831010049 14 230 25.7 48.3 0.00 0.00 0.00 78 999.6
20260831005536 14 306 25.7 57.9 0.00 0.00 0.00 78 999.6
20260831005040 13 248 30.6 57.9 0.00 0.00 0.00 78 999.6
20260831004600 13 248 25.7 56.3 0.00 0.00 0.00 78 999.6
20260831004036 13 294 27.4 56.3 0.00 0.00 0.00 77 999.8
20260831003539 14 254 27.4 56.3 0.00 0.00 0.00 78 1000.0
20260831003056 14 279 24.1 56.3 0.00 0.00 0.00 78 999.9
20260831002539 14 278 30.6 61.2 0.00 0.00 0.00 78 999.9
20260831002039 14 242 24.1 61.2 0.00 0.00 0.00 78 1000.0
20260831001559 13 284 40.2 62.8 0.00 0.00 0.00 79 999.8
20260831001039 13 300 25.7 62.8 0.00 0.00 0.00 78 999.8
20260831000538 13 307 32.2 62.8 0.00 0.00 0.00 77 999.9
20260831000054 14 261 27.4 77.2 0.00 0.00 0.00 76 999.9
20260830235540 14 259 45.1 77.2 0.00 0.00 0.00 75 999.8
20260830235039 14 263 30.6 57.9 0.00 0.00 0.00 79 1000.0
20260830234549 14 18 32.2 64.4 0.00 0.00 0.00 78 999.9
20260830234039 14 259 38.6 64.4 0.00 0.00 0.00 78 999.6
20260830233542 14 302 38.6 64.4 0.00 0.00 0.00 78 999.8
20260830233047 14 288 22.5 53.1 0.00 0.00 0.00 79 999.9
20260830232539 14 314 29.0 53.1 0.00 0.00 0.00 78 1000.1
20260830232038 14 300 30.6 56.3 0.00 0.00 0.00 77 1000.0
20260830231558 14 296 29.0 69.2 0.00 0.00 0.00 77 1000.0
20260830231036 15 254 38.6 69.2 0.00 0.00 0.00 75 1000.0
20260830230536 15 297 24.1 54.7 0.00 0.00 0.00 78 999.8
20260830230052 14 290 22.5 66.0 0.00 0.00 0.00 77 1000.2
20260830225540 14 250 30.6 66.0 0.00 0.00 0.00 77 1000.2
20260830225040 14 288 33.8 54.7 0.00 0.00 0.00 78 1000.3
20260830224548 13 267 24.1 49.9 0.00 0.00 0.00 81 1000.6
20260830224040 13 284 22.5 46.7 0.00 0.00 0.00 81 1000.5
20260830223540 13 272 27.4 48.3 0.00 0.00 0.00 81 1000.6
20260830223056 13 254 24.1 48.3 0.00 0.00 0.00 82 1000.8
20260830222539 13 271 29.0 48.3 0.00 0.00 0.00 82 1000.8
20260830222036 13 298 27.4 48.3 0.00 0.00 0.00 83 1000.8
20260830221555 13 292 25.7 53.1 0.00 0.00 0.00 81 1000.9
20260830221040 13 262 24.1 53.1 0.00 0.00 0.00 80 1001.0
20260830220540 13 307 25.7 59.5 0.00 0.00 0.00 81 1000.8
20260830220052 13 247 27.4 62.8 0.00 0.00 0.00 81 1000.8
20260830215539 13 285 32.2 62.8 0.00 0.00 0.00 81 1000.4
20260830215043 13 295 30.6 56.3 0.00 0.00 0.00 80 1000.1
20260830214557 13 251 30.6 56.3 0.00 0.00 0.00 81 1000.0
20260830214041 13 252 25.7 54.7 0.00 0.00 0.00 83 1000.2
20260830213540 13 267 35.4 54.7 0.00 0.00 0.00 82 1000.2
20260830213049 13 266 27.4 56.3 0.00 0.00 0.00 82 1000.2
20260830212540 13 282 32.2 57.9 0.00 0.00 0.00 81 1000.4
20260830212037 13 318 29.0 57.9 0.00 0.00 0.00 82 1000.2
20260830211552 13 236 30.6 51.5 0.00 0.00 0.00 82 1000.5
20260830211040 13 269 30.6 53.1 0.00 0.00 0.00 84 1000.3
20260830210540 12 320 29.0 53.1 0.00 0.00 0.00 84 1000.0
20260830205536 12 273 30.6 53.1 0.00 0.00 0.00 87 1000.1
20260830205042 12 273 33.8 66.0 0.00 0.00 0.00 87 1000.0
20260830204555 12 245 35.4 66.0 0.00 0.00 0.00 85 999.9
20260830204039 13 311 32.2 51.5 0.00 0.00 0.00 85 999.8
20260830203541 12 262 30.6 56.3 0.00 0.00 0.00 84 999.4
20260830203052 12 295 32.2 56.3 0.00 0.00 0.00 85 999.7
20260830202541 12 265 35.4 59.5 0.00 0.00 0.00 87 999.9
20260830202040 12 250 33.8 59.5 0.00 0.00 0.00 88 1000.2
20260830201607 12 273 25.7 45.1 0.00 0.00 0.00 89 1000.5
20260830201039 12 292 25.7 45.1 0.00 0.00 0.00 86 1000.6
20260830200539 12 278 27.4 53.1 0.00 0.00 0.00 84 1000.8
20260830200100 12 306 27.4 53.1 0.00 0.00 0.00 83 1000.8
20260830195536 12 263 27.4 46.7 0.00 0.00 0.00 84 1000.7
20260830195036 12 268 17.7 38.6 0.00 0.00 0.00 84 1001.0
20260830194601 12 277 20.9 46.7 0.00 0.00 0.00 83 1001.1
20260830194040 12 248 20.9 46.7 0.00 0.00 0.00 80 1001.2
20260830193543 12 239 22.5 46.7 0.00 0.00 0.00 80 1001.4
20260830193049 12 232 19.3 38.6 0.00 0.00 0.00 81 1001.4
20260830192536 12 240 20.9 38.6 0.00 0.00 0.00 81 1001.3
20260830192040 12 284 20.9 33.8 0.00 0.00 0.00 81 1001.0
20260830191601 12 290 17.7 37.0 0.00 0.00 0.00 82 1001.0
20260830191040 12 290 19.3 40.2 0.00 0.00 0.00 82 1000.9
20260830190536 12 288 22.5 40.2 0.00 0.00 0.00 81 1000.5
20260830190112 12 252 24.1 40.2 0.00 0.00 0.00 81 1000.4
20260830185541 12 266 17.7 35.4 0.00 0.00 0.00 81 1000.5
20260830185040 12 275 19.3 35.4 0.00 0.00 0.00 81 1000.5
20260830184559 12 275 20.9 41.8 0.00 0.00 0.00 80 1000.6
20260830184040 12 292 22.5 41.8 0.00 0.00 0.00 81 1000.3
20260830183539 12 272 17.7 41.8 0.00 0.00 0.00 82 1000.3
20260830183049 12 244 24.1 41.8 0.00 0.00 0.00 81 1000.3
20260830182544 12 252 22.5 46.7 0.00 0.00 0.00 81 1000.2
20260830182044 12 298 22.5 46.7 0.00 0.00 0.00 81 1000.3
20260830181559 11 236 19.3 38.6 0.00 0.00 0.00 82 1000.4
20260830181040 11 278 19.3 38.6 0.00 0.00 0.00 82 1000.3
20260830180543 11 242 20.9 38.6 0.00 0.00 0.00 82 1000.4
20260830180105 11 305 22.5 41.8 0.00 0.00 0.00 82 1000.4
20260830175540 11 248 20.9 43.5 0.00 0.00 0.00 82 1000.6
20260830175040 11 240 20.9 43.5 0.00 0.00 0.00 83 1000.5
20260830174554 11 278 19.3 35.4 0.00 0.00 0.00 83 1000.4
20260830174043 11 257 20.9 35.4 0.00 0.00 0.00 82 1000.5
20260830173543 11 254 19.3 33.8 0.00 0.00 0.00 82 1000.5
20260830173117 12 277 19.3 37.0 0.00 0.00 0.00 82 1000.3
20260830172540 11 264 19.3 37.0 0.00 0.00 0.00 82 1000.2
20260830172039 11 263 22.5 37.0 0.00 0.00 0.00 82 1000.0
20260830171607 11 300 16.1 40.2 0.00 0.00 0.00 82 1000.1
20260830171039 11 271 22.5 41.8 0.00 0.00 0.00 81 999.7
20260830170540 11 236 19.3 43.5 0.00 0.00 0.00 81 999.4
20260830170053 11 294 22.5 43.5 0.00 0.00 0.00 81 999.5
20260830165539 11 256 17.7 41.8 0.00 0.00 0.00 82 999.6
20260830165039 12 244 14.5 37.0 0.00 0.00 0.00 81 999.6
20260830164557 12 263 17.7 38.6 0.00 0.00 0.00 80 999.9
20260830164039 12 257 19.3 41.8 0.00 0.00 0.00 80 1000.1
20260830163540 12 295 20.9 41.8 0.00 0.00 0.00 79 1000.3
20260830163053 12 247 20.9 37.0 0.00 0.00 0.00 79 1000.1
20260830162539 12 250 22.5 37.0 0.00 0.00 0.00 79 1000.1
20260830162039 12 233 20.9 41.8 0.00 0.00 0.00 79 1000.2
20260830161602 12 259 22.5 43.5 0.00 0.00 0.00 78 1000.0
20260830161039 12 245 24.1 45.1 0.00 0.00 0.00 79 1000.1
20260830160539 12 241 22.5 45.1 0.00 0.00 0.00 80 1000.0
20260830160107 12 288 16.1 33.8 0.00 0.00 0.00 81 999.8
20260830155539 12 280 17.7 33.8 0.00 0.00 0.00 81 1000.0
20260830155043 12 281 19.3 38.6 0.00 0.00 0.00 80 1000.0
20260830154556 11 258 22.5 38.6 0.00 0.00 0.00 80 1000.1
20260830154040 11 254 20.9 37.0 0.00 0.00 0.00 81 1000.1
20260830153539 11 225 19.3 45.1 0.00 0.00 0.00 82 1000.0
20260830153055 11 264 22.5 46.7 0.00 0.00 0.00 82 999.9
20260830152539 11 265 19.3 46.7 0.00 0.00 0.00 83 999.9
20260830152040 11 292 22.5 38.6 0.00 0.00 0.00 83 999.9
20260830151602 11 262 22.5 38.6 0.00 0.00 0.00 82 999.8
20260830151040 11 241 22.5 38.6 0.00 0.00 0.00 82 999.7
20260830150540 11 248 22.5 38.6 0.00 0.00 0.00 82 999.8
20260830150104 11 271 17.7 40.2 0.00 0.00 0.00 82 999.8
20260830145539 11 246 20.9 40.2 0.00 0.00 0.00 83 999.8
20260830145044 11 252 17.7 33.8 0.00 0.00 0.00 83 999.7
20260830144600 11 264 17.7 33.8 0.00 0.00 0.00 84 999.6
20260830144040 11 295 19.3 33.8 0.00 0.00 0.00 83 999.6
20260830143540 11 245 19.3 32.2 0.00 0.00 0.00 84 999.6
20260830143051 11 246 16.1 29.0 0.00 0.00 0.00 84 999.9
20260830142542 11 249 16.1 30.6 0.00 0.00 0.00 85 999.8
20260830142039 11 247 16.1 30.6 0.00 0.00 0.00 84 1000.0
20260830141558 11 344 17.7 30.6 0.00 0.00 0.00 85 1000.1
20260830141039 11 323 16.1 30.6 0.00 0.00 0.00 84 1000.1
20260830140538 11 248 14.5 33.8 0.00 0.00 0.00 84 1000.2
20260830140106 11 296 19.3 33.8 0.00 0.00 0.00 84 1000.2
20260830135538 11 247 16.1 33.8 0.00 0.00 0.00 84 1000.2
20260830135038 11 294 20.9 33.8 0.00 0.00 0.00 84 1000.2
20260830134559 11 285 16.1 32.2 0.00 0.00 0.00 85 1000.2
20260830134037 11 247 19.3 30.6 0.00 0.00 0.00 85 1000.2
20260830133539 11 242 14.5 30.6 0.00 0.00 0.00 85 1000.2
20260830133051 11 293 14.5 25.7 0.00 0.00 0.00 85 1000.2
20260830132538 11 241 11.3 20.9 0.00 0.00 0.00 87 1000.3
20260830132038 11 267 9.7 19.3 0.00 0.00 0.00 88 1000.2
20260830131602 11 240 9.7 19.3 0.00 0.00 0.00 88 1000.3
20260830131039 11 248 8.0 17.7 0.00 0.00 0.00 87 1000.3
20260830130539 11 253 8.0 19.3 0.00 0.00 0.00 86 1000.3
20260830125538 11 263 12.9 22.5 0.00 0.00 0.00 85 1000.3
20260830125038 11 242 11.3 22.5 0.00 0.00 0.00 85 1000.3
20260830124553 11 266 12.9 22.5 0.00 0.00 0.00 85 1000.2
20260830124038 11 279 12.9 25.7 0.00 0.00 0.00 84 1000.3
20260830123539 11 257 12.9 25.7 0.00 0.00 0.00 84 1000.4
20260830123049 11 304 12.9 24.1 0.00 0.00 0.00 83 1000.3
20260830122540 11 311 14.5 27.4 0.00 0.00 0.00 83 1000.3
20260830122040 11 252 12.9 27.4 0.00 0.00 0.00 83 1000.2
20260830121600 11 277 17.7 27.4 0.00 0.00 0.00 84 1000.2
20260830121038 11 286 14.5 25.7 0.00 0.00 0.00 84 1000.1
20260830120539 11 288 14.5 25.7 0.00 0.00 0.00 84 1000.1
20260830115538 12 263 14.5 38.6 0.00 0.00 0.00 84 1000.2
20260830115037 12 268 20.9 38.6 0.00 0.00 0.00 84 1000.0
20260830114557 12 273 19.3 37.0 0.00 0.00 0.00 85 1000.0
20260830114037 12 242 20.9 37.0 0.00 0.00 0.00 86 1000.1
20260830113538 12 286 19.3 27.4 0.00 0.00 0.00 87 1000.2
20260830113102 12 273 14.5 27.4 0.00 0.00 0.00 87 1000.2
20260830112538 12 275 12.9 29.0 0.00 0.00 0.00 87 1000.1
20260830112039 12 259 17.7 29.0 0.00 0.00 0.00 88 1000.2
20260830111600 12 300 16.1 25.7 0.00 0.00 0.00 88 1000.1
20260830111039 12 289 11.3 29.0 0.00 0.00 0.00 87 1000.2
20260830110539 12 229 14.5 37.0 0.00 0.00 0.00 87 1000.2